View from above orbital plane
|
View from above satellite
|
Ground track
|
The orbit data is extracted from the following two-line orbital elements,
1 26069U 00006A 21015.61222606 -.00000344 00000-0 -15753-3 0 9990
2 26069 70.9936 138.0041 0009226 37.4394 322.7368 14.13426163344345
Epoch (UTC): | 15 January 2021 14:41:36 |
Eccentricity: | 0.0009226 |
inclination: | 70.9936° |
perigee height: | 841 km |
apogee height: | 854 km |
right ascension of ascending node: | 138.0041° |
argument of perigee: | 37.4394° |
revolutions per day: | 14.13426163 |
mean anomaly at epoch: | 322.7368° |
orbit number at epoch: | 34434 |
The dashed part of the orbit path shows where the satellite is in the earth's shadow,
|
|